Troy, AL

5:07 PM CDT on May 24, 2018 (GMT -0500)
Troy Municipal

Weather History for KTOI - June, 2013

Change the Weather History Date:

Tuesday, June 4, 2013

  Actual Average Record
Temperature  
Mean Temperature 81 °F 76 °F  
Max Temperature 94 °F 88 °F 98 °F (2011)
Min Temperature 68 °F 64 °F 57 °F (2006)
Cooling Degree Days 16 11  
Month to date cooling degree days 62 42  
Year to date cooling degree days 354 329  
Since 1 June cooling degree days 62 42  
Growing Degree Days 31 (Base 50)    
Moisture  
Dew Point 69 °F    
Average Humidity 69    
Maximum Humidity 93    
Minimum Humidity 44    
Precipitation  
Precipitation 0.00 in 0.15 in 0.43 in (2016)
Month to date precipitation 0.32 0.61  
Year to date precipitation 23.48 23.44  
Sea Level Pressure  
Sea Level Pressure 29.96 in    
Wind  
Wind Speed 1 mph (South)    
Max Wind Speed 9 mph    
Max Gust Speed 15 mph    
Visibility 7 miles    
Events Fog    
T = Trace of Precipitation, MM = Missing Value Source: NWS Daily Summary

Daily Weather History Graph

Daily Weather History Graph

Search for Another Location

Airport or City:

Astronomy

Jun. 04, 2013 Rise Set
Actual Time 5:38 AM CDT 7:46 PM CDT
Civil Twilight 5:10 AM CDT 8:14 PM CDT
Nautical Twilight 4:36 AM CDT 8:48 PM CDT
Astronomical Twilight 3:59 AM CDT 9:25 PM CDT
Moon 2:56 AM CDT (6/4) 4:25 PM CDT (6/4)
Length of Visible Light 15h 04m
Length of Day
14h 08m
Waning Crescent, 14% of the Moon is Illuminated
Jun 4
Waning Crescent
Jun 8
New
Jun 16
First Quarter
Jun 23
Full
Jun 29
Last Quarter

Hourly Weather History & Observations

Time (CDT) Temp. Heat Index Dew Point Humidity Pressure Visibility Wind Dir Wind Speed Gust Speed Precip Events Conditions
12:53 AM 73.9 °F - 69.1 °F 85% 29.94 in 9.0 mi Calm Calm - N/A   Partly Cloudy
1:53 AM 72.0 °F - 68.0 °F 87% 29.93 in 7.0 mi Calm Calm - N/A   Partly Cloudy
2:53 AM 72.0 °F - 68.0 °F 87% 29.92 in 8.0 mi Calm Calm - N/A   Clear
3:53 AM 70.0 °F - 66.9 °F 90% 29.92 in 4.0 mi Calm Calm - N/A   Clear
4:53 AM 71.1 °F - 66.9 °F 87% 29.94 in 8.0 mi Calm Calm - N/A   Clear
5:44 AM 69.8 °F - 66.2 °F 88% 29.97 in 3.0 mi Calm Calm - N/A   Scattered Clouds
5:47 AM 69.8 °F - 66.2 °F 88% 29.97 in 2.5 mi Calm Calm - N/A   Mostly Cloudy
5:53 AM 69.1 °F - 64.9 °F 87% 29.96 in 2.5 mi Calm Calm - N/A   Mostly Cloudy
6:00 AM 69.8 °F - 66.2 °F 88% 29.98 in 6.0 mi Calm Calm - N/A   Mostly Cloudy
6:28 AM 71.6 °F - 68.0 °F 88% 29.98 in 1.8 mi Calm Calm - N/A   Mostly Cloudy
6:30 AM 71.6 °F - 68.0 °F 88% 29.98 in 1.2 mi Calm Calm - N/A   Mostly Cloudy
6:36 AM 71.6 °F - 68.0 °F 88% 29.98 in 0.8 mi Calm Calm - N/A   Mostly Cloudy
6:44 AM 71.6 °F - 68.0 °F 88% 29.98 in 0.5 mi Calm Calm - N/A Fog Fog
6:49 AM 71.6 °F - 69.8 °F 94% 29.98 in 1.0 mi Calm Calm - N/A   Overcast
6:51 AM 71.6 °F - 69.8 °F 94% 29.98 in 1.5 mi Calm Calm - N/A   Overcast
6:53 AM 72.0 °F - 69.1 °F 91% 29.97 in 2.0 mi Calm Calm - N/A   Overcast
7:10 AM 73.4 °F - 69.8 °F 88% 29.99 in 3.0 mi Calm Calm - N/A   Overcast
7:17 AM 73.4 °F - 69.8 °F 88% 29.99 in 2.0 mi Calm Calm - N/A   Overcast
7:24 AM 73.4 °F - 69.8 °F 88% 29.99 in 1.8 mi Calm Calm - N/A   Overcast
7:33 AM 73.4 °F - 69.8 °F 88% 29.99 in 2.5 mi Calm Calm - N/A   Overcast
7:40 AM 75.2 °F - 69.8 °F 83% 29.99 in 4.0 mi Calm Calm - N/A   Haze
7:53 AM 75.9 °F - 71.1 °F 85% 29.98 in 7.0 mi Calm Calm - N/A   Partly Cloudy
8:11 AM 77.0 °F - 71.6 °F 83% 29.99 in 10.0 mi Calm Calm - N/A   Mostly Cloudy
8:38 AM 78.8 °F - 71.6 °F 78% 29.99 in 9.0 mi Calm Calm - N/A   Scattered Clouds
8:53 AM 80.1 °F 83.8 °F 72.0 °F 76% 29.97 in 10.0 mi Calm Calm - N/A   Scattered Clouds
9:53 AM 82.9 °F 87.5 °F 71.1 °F 67% 29.98 in 10.0 mi Calm Calm - N/A   Partly Cloudy
10:11 AM 84.2 °F 89.6 °F 71.6 °F 66% 30.00 in 10.0 mi Variable 4.6 mph - N/A   Mostly Cloudy
10:18 AM 84.2 °F 88.4 °F 69.8 °F 62% 29.99 in 10.0 mi SW 4.6 mph - N/A   Scattered Clouds
10:53 AM 86.0 °F 89.4 °F 68.0 °F 55% 29.98 in 10.0 mi Calm Calm - N/A   Clear
11:53 AM 89.1 °F 93.7 °F 69.1 °F 52% 29.97 in 10.0 mi Variable 6.9 mph - N/A   Clear
12:53 PM 91.0 °F 95.2 °F 68.0 °F 47% 29.95 in 10.0 mi East 4.6 mph - N/A   Mostly Cloudy
1:53 PM 91.0 °F 94.3 °F 66.9 °F 45% 29.94 in 10.0 mi WSW 5.8 mph - N/A   Mostly Cloudy
2:53 PM 91.0 °F 95.2 °F 68.0 °F 47% 29.91 in 10.0 mi Calm Calm - N/A   Partly Cloudy
3:53 PM 90.0 °F 92.8 °F 66.9 °F 46% 29.91 in 10.0 mi South 3.5 mph - N/A   Clear
4:53 PM 93.0 °F 96.4 °F 66.9 °F 42% 29.89 in 10.0 mi SW 5.8 mph - N/A   Clear
5:53 PM 91.0 °F 95.2 °F 68.0 °F 47% 29.90 in 10.0 mi South 4.6 mph - N/A   Mostly Cloudy
6:53 PM 84.9 °F 89.4 °F 70.0 °F 61% 29.91 in 10.0 mi SSW 10.4 mph - N/A   Mostly Cloudy
7:53 PM 82.0 °F 85.9 °F 70.0 °F 67% 29.93 in 10.0 mi Calm Calm - N/A   Partly Cloudy
8:53 PM 80.1 °F 83.2 °F 70.0 °F 71% 29.94 in 10.0 mi Calm Calm - N/A   Scattered Clouds
9:53 PM 78.1 °F - 70.0 °F 76% 29.96 in 10.0 mi Calm Calm - N/A   Clear
10:53 PM 75.9 °F - 70.0 °F 82% 29.97 in 10.0 mi Calm Calm - N/A   Clear
11:53 PM 73.9 °F - 70.0 °F 87% 29.98 in 10.0 mi SSE 3.5 mph - N/A   Mostly Cloudy